#�ϑ�����,���ϕ���,���ϕ���,�ő啗��,�ő啗����������,�ő�u�ԕ���,�ő�u�ԕ�����������
#(�N����),(m/s)   ,(16����),(m/s)   ,(16����)        ,(m/s)       ,(16����)            
2018/7/3 0:01,2.5,6,2.6,6,2.2,5
2018/7/3 0:02,2.4,6,2.5,6,2.6,7
2018/7/3 0:03,2.2,6,2.3,6,3.1,8
2018/7/3 0:04,2.2,6,2.2,6,3.2,8
2018/7/3 0:05,2.1,6,2.2,6,2.6,6
2018/7/3 0:06,2,6,2.1,6,3.7,6
2018/7/3 0:07,1.9,6,2,6,2,6
2018/7/3 0:08,1.8,6,1.9,6,2.7,5
2018/7/3 0:09,1.8,5,1.8,6,2.2,4
2018/7/3 0:10,1.7,5,1.8,6,2.2,4
2018/7/3 0:11,1.7,5,1.7,6,1.4,4
2018/7/3 0:12,1.6,5,1.6,6,2.2,3
2018/7/3 0:13,1.6,5,1.6,6,2.7,4
2018/7/3 0:14,1.5,5,1.6,6,2.6,5
2018/7/3 0:15,1.5,5,1.5,6,3,5
2018/7/3 0:16,1.5,5,1.5,6,2.7,6
2018/7/3 0:17,1.5,5,1.5,6,2,6
2018/7/3 0:18,1.4,5,1.5,6,1.9,6
2018/7/3 0:19,1.4,5,1.4,5,1.8,6
2018/7/3 0:20,1.3,5,1.4,5,1.9,4
2018/7/3 0:21,1.4,5,1.4,5,2.1,4
2018/7/3 0:22,1.4,5,1.4,5,2.6,5
2018/7/3 0:23,1.5,5,1.5,5,3,6
2018/7/3 0:24,1.5,5,1.5,5,2.7,5
2018/7/3 0:25,1.5,5,1.5,5,3.2,6
2018/7/3 0:26,1.4,5,1.5,5,2.6,5
2018/7/3 0:27,1.4,5,1.4,5,1.8,5
2018/7/3 0:28,1.5,5,1.5,5,3.5,6
2018/7/3 0:29,1.6,5,1.6,5,2.6,9
2018/7/3 0:30,1.6,5,1.6,5,3.1,6
2018/7/3 0:31,1.8,5,1.8,5,3.3,5
2018/7/3 0:32,1.9,5,1.9,5,3.6,5
2018/7/3 0:33,2,5,2,5,3.7,6
2018/7/3 0:34,2,5,2,5,3.5,6
2018/7/3 0:35,2,6,2.1,6,3,6
2018/7/3 0:36,2.1,6,2.1,6,3.9,6
2018/7/3 0:37,2.1,6,2.1,6,2.2,8
2018/7/3 0:38,2,6,2.1,6,3.6,6
2018/7/3 0:39,2,6,2,6,3,6
2018/7/3 0:40,2.1,6,2.1,6,3,6
2018/7/3 0:41,2,6,2.1,6,2.5,6
2018/7/3 0:42,1.9,6,1.9,6,2.9,5
2018/7/3 0:43,1.8,6,1.9,6,3.5,6
2018/7/3 0:44,1.9,6,1.9,6,4.1,5
2018/7/3 0:45,2,6,2,6,4.4,6
2018/7/3 0:46,2.2,6,2.2,6,5.4,6
2018/7/3 0:47,2.3,6,2.3,6,4.3,7
2018/7/3 0:48,2.3,6,2.3,6,2.9,6
2018/7/3 0:49,2.2,6,2.3,6,2.5,6
2018/7/3 0:50,2.2,6,2.2,6,3.7,6
2018/7/3 0:51,2.2,6,2.3,6,2.5,6
2018/7/3 0:52,2.3,6,2.3,6,2.6,5
2018/7/3 0:53,2.3,6,2.3,6,4.4,8
2018/7/3 0:54,2.2,6,2.3,6,3.5,6
2018/7/3 0:55,2.1,6,2.2,6,2.9,6
2018/7/3 0:56,1.7,6,2,6,2.5,8
2018/7/3 0:57,1.6,6,1.7,6,1.3,7
2018/7/3 0:58,1.6,6,1.6,6,2.4,4
2018/7/3 0:59,1.7,6,1.7,6,2.9,6
2018/7/3 1:00,1.6,6,1.7,6,3.9,4
2018/7/3 1:01,1.9,6,1.9,6,5.6,7
2018/7/3 1:02,1.9,6,1.9,6,3.5,7
2018/7/3 1:03,1.9,6,1.9,6,4.1,4
2018/7/3 1:04,2,6,2,6,2.7,5
2018/7/3 1:05,1.9,6,1.9,6,2.7,7
2018/7/3 1:06,2,6,2,6,4.1,7
2018/7/3 1:07,2.2,6,2.2,6,3.7,6
2018/7/3 1:08,2.2,6,2.3,6,3.3,6
2018/7/3 1:09,2.2,6,2.2,6,2.7,7
2018/7/3 1:10,2.3,6,2.3,6,6.2,7
2018/7/3 1:11,2.3,6,2.4,6,4.5,6
2018/7/3 1:12,2.3,6,2.3,6,3.6,6
2018/7/3 1:13,2.2,6,2.3,6,3.3,5
2018/7/3 1:14,2.2,6,2.2,6,3.9,5
2018/7/3 1:15,2.5,6,2.5,6,6.4,3
2018/7/3 1:16,2.7,6,2.7,6,5.6,5
2018/7/3 1:17,2.7,6,2.7,6,4.2,5
2018/7/3 1:18,2.6,6,2.6,6,2.1,10
2018/7/3 1:19,2.8,6,2.8,6,5.2,7
2018/7/3 1:20,2.7,6,2.7,6,3.3,6
2018/7/3 1:21,2.6,6,2.6,6,4.2,5
2018/7/3 1:22,2.7,6,2.7,6,3.1,5
2018/7/3 1:23,2.6,6,2.7,6,2.1,7
2018/7/3 1:24,2.4,6,2.5,6,1.8,6
2018/7/3 1:25,2.1,6,2.4,6,1.3,8
2018/7/3 1:26,2,6,2.1,6,6.8,2
2018/7/3 1:27,2.1,6,2.1,6,5.4,5
2018/7/3 1:28,2.3,6,2.3,6,4.2,6
2018/7/3 1:29,2.2,6,2.3,6,4.1,5
2018/7/3 1:30,2.3,6,2.3,6,4.4,5
2018/7/3 1:31,2.2,6,2.3,6,4.5,5
2018/7/3 1:32,2.2,6,2.2,6,3.5,6
2018/7/3 1:33,2.3,5,2.3,6,5.2,6
2018/7/3 1:34,2.5,5,2.5,5,4.5,6
2018/7/3 1:35,2.6,5,2.6,5,3.1,5
2018/7/3 1:36,2.6,5,2.6,5,3.7,4
2018/7/3 1:37,2.5,5,2.6,5,3.7,6
2018/7/3 1:38,2.4,5,2.5,5,2.7,6
2018/7/3 1:39,2.3,5,2.4,5,3.2,6
2018/7/3 1:40,2.3,5,2.3,5,3.9,5
2018/7/3 1:41,2.3,5,2.3,5,3.6,4
2018/7/3 1:42,2.3,5,2.3,5,4.1,6
2018/7/3 1:43,2.3,5,2.4,5,3.7,5
2018/7/3 1:44,2.2,5,2.3,5,3,2
2018/7/3 1:45,2.2,5,2.2,5,3,5
2018/7/3 1:46,2,5,2.2,5,2.5,6
2018/7/3 1:47,2,5,2,5,3.5,6
2018/7/3 1:48,1.9,5,2,5,1.5,3
2018/7/3 1:49,1.8,5,1.8,5,3.5,6
2018/7/3 1:50,1.8,5,1.8,5,4.8,6
2018/7/3 1:51,1.9,5,1.9,5,4.9,6
2018/7/3 1:52,1.9,5,2,5,3.1,5
2018/7/3 1:53,1.8,5,1.9,5,3.1,5
2018/7/3 1:54,1.9,5,1.9,5,3.3,5
2018/7/3 1:55,1.9,5,1.9,5,3.3,7
2018/7/3 1:56,2.1,6,2.1,6,4.5,7
2018/7/3 1:57,2.1,6,2.1,6,2.7,6
2018/7/3 1:58,2.1,6,2.1,6,2,6
2018/7/3 1:59,2.2,6,2.2,6,2.6,5
2018/7/3 2:00,2.1,6,2.2,6,2.4,6
2018/7/3 2:01,1.9,5,2,6,1.9,5
2018/7/3 2:02,1.8,5,1.9,6,2.9,5
2018/7/3 2:03,1.8,5,1.9,6,3.6,5
2018/7/3 2:04,1.8,5,1.9,6,3,3
2018/7/3 2:05,1.9,5,1.9,6,3.3,5
2018/7/3 2:06,1.7,4,1.9,6,2.5,3
2018/7/3 2:07,1.8,4,1.8,6,4.3,4
2018/7/3 2:08,1.9,4,1.9,6,3.1,4
2018/7/3 2:09,1.9,4,1.9,6,2.1,5
2018/7/3 2:10,2,4,2,6,2.7,3
2018/7/3 2:11,2,4,2,4,2.2,4
2018/7/3 2:12,2,4,2,4,2.1,3
2018/7/3 2:13,1.8,4,1.9,4,2.1,7
2018/7/3 2:14,1.8,4,1.8,4,2.6,3
2018/7/3 2:15,1.8,4,1.8,4,3.3,4
2018/7/3 2:16,1.9,4,1.9,4,3.9,5
2018/7/3 2:17,1.7,4,1.9,4,1.9,5
2018/7/3 2:18,1.6,4,1.7,4,2.4,5
2018/7/3 2:19,1.6,4,1.7,4,2.6,5
2018/7/3 2:20,1.6,4,1.6,4,3.6,3
2018/7/3 2:21,1.8,4,1.8,4,4.1,6
2018/7/3 2:22,2,5,2,5,5.1,6
2018/7/3 2:23,2.1,5,2.1,5,3.9,5
2018/7/3 2:24,2.2,5,2.2,5,3.5,5
2018/7/3 2:25,2.2,5,2.2,5,4.2,4
2018/7/3 2:26,2.2,5,2.2,5,3.5,4
2018/7/3 2:27,2.2,5,2.2,5,3.1,3
2018/7/3 2:28,2.3,5,2.3,5,3.6,5
2018/7/3 2:29,2.6,5,2.6,5,5.4,5
2018/7/3 2:30,2.6,5,2.6,5,4.9,5
2018/7/3 2:31,2.6,5,2.7,5,5.1,4
2018/7/3 2:32,2.5,5,2.6,5,4.3,5
2018/7/3 2:33,2.5,5,2.6,5,3.5,6
2018/7/3 2:34,2.6,5,2.6,5,3.6,6
2018/7/3 2:35,2.7,5,2.7,5,5.5,4
2018/7/3 2:36,2.8,5,2.8,5,4.7,6
2018/7/3 2:37,2.9,5,2.9,5,3.9,4
2018/7/3 2:38,2.9,5,2.9,5,3.7,5
2018/7/3 2:39,2.8,5,3,5,3.5,5
2018/7/3 2:40,2.7,5,2.8,5,2.7,5
2018/7/3 2:41,2.7,5,2.7,5,4.2,5
2018/7/3 2:42,2.6,5,2.7,5,3,3
2018/7/3 2:43,2.6,4,2.6,5,4.2,4
2018/7/3 2:44,2.6,4,2.6,5,4.1,4
2018/7/3 2:45,2.6,4,2.6,5,3.9,5
2018/7/3 2:46,2.5,4,2.5,5,4.4,4
2018/7/3 2:47,2.5,4,2.6,5,3.9,5
2018/7/3 2:48,2.6,4,2.6,5,4.1,4
2018/7/3 2:49,2.6,4,2.6,5,3.6,3
2018/7/3 2:50,2.7,4,2.7,5,3.6,4
2018/7/3 2:51,2.7,4,2.7,5,4.4,4
2018/7/3 2:52,2.7,4,2.7,4,3.5,4
2018/7/3 2:53,2.8,4,2.8,4,3.7,3
2018/7/3 2:54,2.8,4,2.8,4,3.9,5
2018/7/3 2:55,2.8,4,2.8,4,4.7,4
2018/7/3 2:56,2.8,4,2.9,4,4.7,5
2018/7/3 2:57,2.9,4,2.9,4,3.8,4
2018/7/3 2:58,2.8,4,2.9,4,3.5,5
2018/7/3 2:59,2.8,4,2.8,4,3.1,4
2018/7/3 3:00,2.8,4,2.8,4,3.7,3
2018/7/3 3:01,2.7,4,2.8,4,3.9,6
2018/7/3 3:02,2.8,4,2.8,4,4.3,6
2018/7/3 3:03,2.7,4,2.8,4,3.5,5
2018/7/3 3:04,2.7,4,2.7,4,2.7,4
2018/7/3 3:05,2.6,4,2.7,4,4.2,4
2018/7/3 3:06,2.7,5,2.7,4,4.7,6
2018/7/3 3:07,2.8,4,2.8,4,4.5,5
2018/7/3 3:08,2.9,5,2.9,5,4.3,5
2018/7/3 3:09,2.9,5,2.9,5,3.7,5
2018/7/3 3:10,2.9,5,2.9,5,3.7,5
2018/7/3 3:11,2.8,5,2.9,5,3.6,5
2018/7/3 3:12,2.8,5,2.8,5,4.2,5
2018/7/3 3:13,2.8,5,2.8,5,3.7,5
2018/7/3 3:14,2.8,5,2.8,5,3.1,6
2018/7/3 3:15,2.7,5,2.8,5,3.2,5
2018/7/3 3:16,2.5,5,2.7,5,2.9,4
2018/7/3 3:17,2.4,5,2.5,5,3.7,5
2018/7/3 3:18,2.3,5,2.4,5,3.3,4
2018/7/3 3:19,2.2,4,2.3,5,3.2,3
2018/7/3 3:20,2.2,4,2.2,5,2.7,6
2018/7/3 3:21,2.2,5,2.2,5,3.7,5
2018/7/3 3:22,2.2,4,2.2,5,4.3,5
2018/7/3 3:23,2.2,4,2.2,5,3.8,4
2018/7/3 3:24,2.2,4,2.2,5,3.7,3
2018/7/3 3:25,2.3,4,2.3,5,3.3,2
2018/7/3 3:26,2.3,4,2.3,5,3.3,5
2018/7/3 3:27,2.3,4,2.4,5,3.5,4
2018/7/3 3:28,2.4,4,2.4,4,3.6,3
2018/7/3 3:29,2.4,4,2.5,4,4.1,4
2018/7/3 3:30,2.4,4,2.5,4,3,5
2018/7/3 3:31,2.4,4,2.4,4,2.7,3
2018/7/3 3:32,2.2,3,2.3,4,3,3
2018/7/3 3:33,2.2,4,2.3,4,3.5,3
2018/7/3 3:34,2.2,3,2.2,4,5.1,4
2018/7/3 3:35,2.3,4,2.3,4,4.8,3
2018/7/3 3:36,2.4,3,2.4,4,4.7,3
2018/7/3 3:37,2.4,4,2.4,4,3.5,3
2018/7/3 3:38,2.4,3,2.4,4,2.9,2
2018/7/3 3:39,2.4,3,2.4,4,4.7,4
2018/7/3 3:40,2.5,3,2.5,3,3.5,3
2018/7/3 3:41,2.6,4,2.6,3,3.9,3
2018/7/3 3:42,2.6,4,2.6,3,3.3,3
2018/7/3 3:43,2.6,4,2.6,3,3.3,4
2018/7/3 3:44,2.6,4,2.7,4,5.5,3
2018/7/3 3:45,2.7,3,2.8,3,4.9,4
2018/7/3 3:46,2.7,4,2.8,3,4.3,3
2018/7/3 3:47,2.8,4,2.8,3,5.6,4
2018/7/3 3:48,3,4,3,4,5.8,5
2018/7/3 3:49,3,4,3,4,5,5
2018/7/3 3:50,3.2,4,3.2,4,5.2,4
2018/7/3 3:51,3.3,4,3.3,4,4.8,5
2018/7/3 3:52,3.5,4,3.5,4,5.5,5
2018/7/3 3:53,3.4,4,3.5,4,3.6,6
2018/7/3 3:54,3.3,4,3.4,4,3.3,3
2018/7/3 3:55,3.2,4,3.3,4,4.3,3
2018/7/3 3:56,3.3,4,3.3,4,5,4
2018/7/3 3:57,3.2,4,3.3,4,5.2,6
2018/7/3 3:58,3.1,4,3.2,4,3.9,5
2018/7/3 3:59,2.9,4,3.1,4,2.6,5
2018/7/3 4:00,2.6,4,2.9,4,3.6,7
2018/7/3 4:01,2.6,5,2.6,4,3.7,4
2018/7/3 4:02,2.4,5,2.6,4,4.5,4
2018/7/3 4:03,2.4,5,2.4,4,2.9,6
2018/7/3 4:04,2.5,5,2.5,4,3.8,5
2018/7/3 4:05,2.3,5,2.5,4,3.2,4
2018/7/3 4:06,2.1,5,2.3,4,3.3,3
2018/7/3 4:07,2.1,5,2.1,4,3.8,3
2018/7/3 4:08,2.1,4,2.1,4,4.5,4
2018/7/3 4:09,2.1,5,2.1,4,2.9,5
2018/7/3 4:10,2.3,4,2.3,4,4.7,5
2018/7/3 4:11,2.4,4,2.4,5,4.4,5
2018/7/3 4:12,2.4,4,2.4,5,4.5,5
2018/7/3 4:13,2.5,4,2.5,5,3.9,5
2018/7/3 4:14,2.6,4,2.6,4,4.7,4
2018/7/3 4:15,2.6,4,2.6,4,3.6,4
2018/7/3 4:16,2.7,4,2.7,4,3.1,5
2018/7/3 4:17,2.6,4,2.7,4,3.1,3
2018/7/3 4:18,2.5,4,2.6,4,2.7,2
2018/7/3 4:19,2.6,4,2.6,4,3.7,2
2018/7/3 4:20,2.6,4,2.6,4,4.7,3
2018/7/3 4:21,2.4,4,2.5,4,3.9,7
2018/7/3 4:22,2.4,4,2.4,4,4.1,3
2018/7/3 4:23,2.4,4,2.4,4,4.3,5
2018/7/3 4:24,2.4,4,2.4,4,4.3,5
2018/7/3 4:25,2.4,4,2.4,4,3.8,5
2018/7/3 4:26,2.6,4,2.6,4,5.1,4
2018/7/3 4:27,2.5,4,2.6,4,4.3,3
2018/7/3 4:28,2.7,4,2.7,4,4.2,4
2018/7/3 4:29,2.5,4,2.6,4,2.1,2
2018/7/3 4:30,2.4,4,2.5,4,3,5
2018/7/3 4:31,2.4,4,2.4,4,2.7,3
2018/7/3 4:32,2.3,4,2.3,4,2.7,5
2018/7/3 4:33,2.3,4,2.3,4,4.9,3
2018/7/3 4:34,2.3,4,2.3,4,4.2,5
2018/7/3 4:35,2.1,4,2.3,4,2.7,3
2018/7/3 4:36,2.2,4,2.2,4,6.1,4
2018/7/3 4:37,2.3,4,2.3,4,5.1,4
2018/7/3 4:38,2.3,4,2.3,4,3.8,5
2018/7/3 4:39,2.5,4,2.5,4,3.9,5
2018/7/3 4:40,2.6,4,2.6,4,3.7,3
2018/7/3 4:41,2.6,4,2.6,4,3.8,3
2018/7/3 4:42,2.7,4,2.7,4,3.1,3
2018/7/3 4:43,2.6,4,2.7,4,4.4,4
2018/7/3 4:44,2.6,4,2.6,4,3.2,3
2018/7/3 4:45,2.6,4,2.6,4,3,3
2018/7/3 4:46,2.5,4,2.6,4,3.8,4
2018/7/3 4:47,2.5,4,2.5,4,4.8,4
2018/7/3 4:48,2.5,4,2.5,4,4.8,4
2018/7/3 4:49,2.5,4,2.5,4,4.8,5
2018/7/3 4:50,2.6,4,2.6,4,3.9,5
2018/7/3 4:51,2.5,4,2.5,4,4.1,4
2018/7/3 4:52,2.6,4,2.6,4,3.7,5
2018/7/3 4:53,2.5,4,2.6,4,3.3,4
2018/7/3 4:54,2.5,4,2.5,4,3.3,5
2018/7/3 4:55,2.6,4,2.6,4,5.1,5
2018/7/3 4:56,2.6,4,2.6,4,5.1,3
2018/7/3 4:57,2.7,4,2.7,4,5.6,4
2018/7/3 4:58,2.8,4,2.9,4,6.2,5
2018/7/3 4:59,2.8,4,2.8,4,4.1,5
2018/7/3 5:00,2.7,4,2.8,4,3.9,4
2018/7/3 5:01,2.8,4,2.8,4,3.7,4
2018/7/3 5:02,2.8,4,2.8,4,4.7,5
2018/7/3 5:03,2.9,4,2.9,4,4.1,5
2018/7/3 5:04,3,4,3,4,4.1,3
2018/7/3 5:05,3,4,3.1,4,5.4,4
2018/7/3 5:06,3,4,3,4,4.4,4
2018/7/3 5:07,2.9,4,3,4,4.5,4
2018/7/3 5:08,2.7,4,2.8,4,3,4
2018/7/3 5:09,2.6,4,2.7,4,4.2,4
2018/7/3 5:10,2.7,4,2.7,4,5,3
2018/7/3 5:11,2.7,4,2.7,4,4.2,4
2018/7/3 5:12,2.7,4,2.8,4,3.6,4
2018/7/3 5:13,2.7,4,2.7,4,3.3,5
2018/7/3 5:14,2.6,4,2.6,4,2.9,3
2018/7/3 5:15,2.4,4,2.6,4,2.6,4
2018/7/3 5:16,2.3,4,2.4,4,3.3,4
2018/7/3 5:17,2.3,4,2.3,4,5.2,4
2018/7/3 5:18,2.5,4,2.5,4,5.4,4
2018/7/3 5:19,2.7,4,2.7,4,5,4
2018/7/3 5:20,2.7,4,2.8,4,5.5,5
2018/7/3 5:21,2.8,4,2.8,4,5.4,3
2018/7/3 5:22,2.9,4,2.9,4,5,5
2018/7/3 5:23,3,4,3,4,5.6,4
2018/7/3 5:24,3.2,4,3.2,4,5.1,5
2018/7/3 5:25,3.3,4,3.3,4,3.6,3
2018/7/3 5:26,3.4,4,3.4,4,5.7,3
2018/7/3 5:27,3.6,4,3.6,4,5.6,4
2018/7/3 5:28,3.5,4,3.6,4,4.7,5
2018/7/3 5:29,3.5,4,3.5,4,5.2,4
2018/7/3 5:30,3.6,4,3.6,4,6,3
2018/7/3 5:31,3.5,4,3.6,4,4.7,5
2018/7/3 5:32,3.5,4,3.5,4,5.8,3
2018/7/3 5:33,3.5,4,3.5,4,6.1,5
2018/7/3 5:34,3.5,4,3.5,4,5.2,5
2018/7/3 5:35,3.5,4,3.5,4,5.1,4
2018/7/3 5:36,3.6,4,3.6,4,6.1,3
2018/7/3 5:37,3.6,4,3.6,4,5.8,3
2018/7/3 5:38,3.6,4,3.6,4,4.7,3
2018/7/3 5:39,3.7,4,3.7,4,5.5,4
2018/7/3 5:40,3.5,4,3.7,4,5,2
2018/7/3 5:41,3.7,4,3.7,4,6.3,4
2018/7/3 5:42,3.8,4,3.8,4,6,4
2018/7/3 5:43,3.8,4,3.9,4,4.4,4
2018/7/3 5:44,3.7,4,3.8,4,4.4,5
2018/7/3 5:45,3.6,4,3.7,4,3.8,4
2018/7/3 5:46,3.6,4,3.6,4,4.4,3
2018/7/3 5:47,3.5,4,3.5,4,5.6,4
2018/7/3 5:48,3.6,4,3.6,4,5.8,3
2018/7/3 5:49,3.4,4,3.6,4,4.2,5
2018/7/3 5:50,3.4,4,3.4,4,5.4,4
2018/7/3 5:51,3.2,4,3.4,4,4.1,4
2018/7/3 5:52,3.1,4,3.2,4,4.4,3
2018/7/3 5:53,3,4,3.1,4,3.6,4
2018/7/3 5:54,2.9,4,3,4,3.8,5
2018/7/3 5:55,2.9,4,3,4,3.6,4
2018/7/3 5:56,3,4,3,4,5,5
2018/7/3 5:57,3,4,3,4,5,5
2018/7/3 5:58,2.8,4,3,4,3.8,5
2018/7/3 5:59,2.7,4,2.7,4,4.2,4
2018/7/3 6:00,2.8,4,2.8,4,5.5,3
2018/7/3 6:01,2.9,4,2.9,4,5.8,5
2018/7/3 6:02,2.8,4,2.9,4,4.2,5
2018/7/3 6:03,2.9,4,2.9,4,4.2,5
2018/7/3 6:04,3,4,3,4,5.6,5
2018/7/3 6:05,3.1,4,3.1,4,5.7,4
2018/7/3 6:06,3.1,4,3.2,4,5.2,4
2018/7/3 6:07,3,4,3.1,4,3.2,4
2018/7/3 6:08,3,4,3,4,5.6,5
2018/7/3 6:09,3.2,4,3.2,4,5.5,4
2018/7/3 6:10,3.1,4,3.2,4,5.4,5
2018/7/3 6:11,3.1,4,3.1,4,5,3
2018/7/3 6:12,3.3,4,3.3,4,5.6,3
2018/7/3 6:13,3.3,4,3.3,4,5.1,6
2018/7/3 6:14,3.4,4,3.4,4,5.1,4
2018/7/3 6:15,3.4,4,3.4,4,5.5,5
2018/7/3 6:16,3.3,4,3.4,4,4.1,3
2018/7/3 6:17,3.4,4,3.4,4,4.1,3
2018/7/3 6:18,3.5,4,3.5,4,5.1,4
2018/7/3 6:19,3.3,4,3.4,4,3.7,5
2018/7/3 6:20,3.2,4,3.3,4,4.1,3
2018/7/3 6:21,3.3,4,3.3,4,6.1,5
2018/7/3 6:22,3.3,4,3.3,4,5.8,5
2018/7/3 6:23,3.4,4,3.4,4,6.5,5
2018/7/3 6:24,3.3,4,3.4,4,3.7,4
2018/7/3 6:25,3.2,4,3.3,4,5.5,5
2018/7/3 6:26,3.4,4,3.4,4,6.1,4
2018/7/3 6:27,3.5,4,3.5,4,6.2,5
2018/7/3 6:28,3.7,4,3.7,4,6.5,5
2018/7/3 6:29,3.8,4,3.8,4,5.4,4
2018/7/3 6:30,3.9,4,3.9,4,5.7,4
2018/7/3 6:31,3.9,4,3.9,4,5.7,4
2018/7/3 6:32,3.9,4,3.9,4,6.5,3
2018/7/3 6:33,3.8,4,3.9,4,5.5,4
2018/7/3 6:34,3.9,4,3.9,4,5.4,4
2018/7/3 6:35,3.9,4,4,4,5.8,6
2018/7/3 6:36,3.9,4,4,4,5.4,5
2018/7/3 6:37,3.9,4,4,4,5.7,5
2018/7/3 6:38,3.7,4,3.9,4,3.9,3
2018/7/3 6:39,3.7,4,3.7,4,5.7,4
2018/7/3 6:40,3.7,4,3.7,4,5.1,4
2018/7/3 6:41,3.7,4,3.7,4,7.1,3
2018/7/3 6:42,3.6,4,3.7,4,4.3,4
2018/7/3 6:43,3.6,4,3.6,4,6.3,3
2018/7/3 6:44,3.5,4,3.6,4,4.5,4
2018/7/3 6:45,3.5,4,3.6,4,5.7,4
2018/7/3 6:46,3.5,4,3.6,5,5.4,5
2018/7/3 6:47,3.3,4,3.5,4,4.4,5
2018/7/3 6:48,3.4,4,3.4,4,6.4,3
2018/7/3 6:49,3.4,4,3.4,4,6.9,3
2018/7/3 6:50,3.6,4,3.6,4,5.5,3
2018/7/3 6:51,3.5,4,3.5,4,5.1,3
2018/7/3 6:52,3.5,4,3.5,4,5.7,4
2018/7/3 6:53,3.6,4,3.6,4,5.7,3
2018/7/3 6:54,3.5,4,3.6,4,4.4,4
2018/7/3 6:55,3.4,4,3.5,4,4.1,4
2018/7/3 6:56,3.3,4,3.4,4,3.7,4
2018/7/3 6:57,3.4,4,3.4,4,5,4
2018/7/3 6:58,3.5,4,3.6,4,6.3,4
2018/7/3 6:59,3.4,4,3.5,4,6.5,3
2018/7/3 7:00,3.4,4,3.5,4,6.7,4
2018/7/3 7:01,3.5,4,3.5,4,5.7,4
2018/7/3 7:02,3.6,4,3.6,4,6.4,3
2018/7/3 7:03,3.7,4,3.7,4,6.7,3
2018/7/3 7:04,3.8,4,3.8,4,5.8,4
2018/7/3 7:05,3.9,4,3.9,4,7.4,3
2018/7/3 7:06,4.2,4,4.2,4,7.7,3
2018/7/3 7:07,4.3,4,4.3,4,6.9,4
2018/7/3 7:08,4.3,4,4.4,4,6.4,5
2018/7/3 7:09,4.3,4,4.4,4,7.4,4
2018/7/3 7:10,4.4,4,4.4,4,7.8,4
2018/7/3 7:11,4.4,4,4.5,4,6.5,4
2018/7/3 7:12,4.3,4,4.5,4,5.4,4
2018/7/3 7:13,4.2,4,4.3,4,5,5
2018/7/3 7:14,4.2,4,4.2,4,4.9,3
2018/7/3 7:15,4.2,4,4.2,4,6.4,3
2018/7/3 7:16,4,4,4.2,4,5.4,5
2018/7/3 7:17,3.9,4,4,4,5.1,5
2018/7/3 7:18,4,4,4,4,6.3,4
2018/7/3 7:19,3.9,4,4,4,5.5,4
2018/7/3 7:20,3.8,4,3.9,4,6.5,5
2018/7/3 7:21,3.8,4,3.8,4,6.7,5
2018/7/3 7:22,3.7,4,3.8,4,4.2,3
2018/7/3 7:23,3.7,4,3.7,4,5.4,5
2018/7/3 7:24,3.5,4,3.7,4,4.8,3
2018/7/3 7:25,3.5,4,3.5,4,7.6,3
2018/7/3 7:26,3.7,4,3.7,4,6.5,4
2018/7/3 7:27,3.6,4,3.7,4,6,4
2018/7/3 7:28,3.6,4,3.6,4,5.2,5
2018/7/3 7:29,3.6,4,3.6,4,4.9,3
2018/7/3 7:30,3.4,4,3.6,4,4.9,3
2018/7/3 7:31,3.4,4,3.4,4,5.6,4
2018/7/3 7:32,3.5,4,3.5,4,5.4,3
2018/7/3 7:33,3.5,4,3.5,4,6.1,4
2018/7/3 7:34,3.7,4,3.7,4,4.8,4
2018/7/3 7:35,3.5,4,3.7,4,4.2,4
2018/7/3 7:36,3.4,4,3.4,4,5.1,4
2018/7/3 7:37,3.3,4,3.3,4,4.1,3
2018/7/3 7:38,3.4,4,3.4,4,6.3,4
2018/7/3 7:39,3.6,4,3.6,4,6.4,4
2018/7/3 7:40,3.7,4,3.7,4,6.8,4
2018/7/3 7:41,3.6,4,3.7,4,4.8,5
2018/7/3 7:42,3.5,4,3.6,4,4.7,5
2018/7/3 7:43,3.5,4,3.5,4,4.7,4
2018/7/3 7:44,3.5,4,3.5,4,6.4,3
2018/7/3 7:45,3.7,4,3.7,4,5.4,5
2018/7/3 7:46,3.7,4,3.8,4,6,6
2018/7/3 7:47,3.7,4,3.7,4,3.6,4
2018/7/3 7:48,3.5,4,3.6,4,4.4,4
2018/7/3 7:49,3.4,4,3.5,4,6,4
2018/7/3 7:50,3.3,4,3.4,4,5.2,3
2018/7/3 7:51,3.3,4,3.4,4,4.5,4
2018/7/3 7:52,3.4,4,3.4,4,5.5,3
2018/7/3 7:53,3.6,4,3.6,4,7.1,3
2018/7/3 7:54,3.6,4,3.6,4,5.1,3
2018/7/3 7:55,3.5,4,3.6,4,5,3
2018/7/3 7:56,3.5,4,3.5,4,4.4,3
2018/7/3 7:57,3.6,4,3.6,4,3.6,3
2018/7/3 7:58,3.6,4,3.6,4,4.5,4
2018/7/3 7:59,3.6,4,3.6,4,5,3
2018/7/3 8:00,3.5,4,3.6,4,4.9,4
2018/7/3 8:01,3.5,4,3.5,4,5.5,3
2018/7/3 8:02,3.6,4,3.6,4,6.3,4
2018/7/3 8:03,3.5,4,3.6,4,5.8,5
2018/7/3 8:04,3.4,4,3.5,4,6.5,4
2018/7/3 8:05,3.4,4,3.5,4,4.9,3
2018/7/3 8:06,3.4,4,3.4,4,5.1,3
2018/7/3 8:07,3.4,4,3.4,4,3.2,2
2018/7/3 8:08,3.4,4,3.4,4,4.8,4
2018/7/3 8:09,3.5,4,3.5,4,5.6,3
2018/7/3 8:10,3.5,4,3.5,4,5,4
2018/7/3 8:11,3.5,4,3.5,4,5,4
2018/7/3 8:12,3.3,3,3.4,4,3.7,3
2018/7/3 8:13,3.3,3,3.3,4,5.7,4
2018/7/3 8:14,3.3,4,3.4,4,5.4,5
2018/7/3 8:15,3.3,4,3.3,4,4.5,3
2018/7/3 8:16,3.2,4,3.2,4,4.4,4
2018/7/3 8:17,3.2,4,3.3,4,4.4,3
2018/7/3 8:18,3.2,3,3.3,4,4.7,4
2018/7/3 8:19,3,3,3.2,4,3.3,3
2018/7/3 8:20,2.8,3,3,4,2.7,4
2018/7/3 8:21,2.8,3,2.8,4,5.5,2
2018/7/3 8:22,2.9,3,2.9,4,4.4,3
2018/7/3 8:23,2.6,3,2.8,4,3.6,4
2018/7/3 8:24,2.5,3,2.6,4,3.8,5
2018/7/3 8:25,2.6,3,2.6,4,4.8,4
2018/7/3 8:26,2.6,4,2.6,4,4.5,5
2018/7/3 8:27,2.6,4,2.7,4,3.1,5
2018/7/3 8:28,2.4,4,2.6,3,3.7,3
2018/7/3 8:29,2.6,4,2.6,3,5.4,3
2018/7/3 8:30,2.7,4,2.7,3,5,3
2018/7/3 8:31,2.9,4,2.9,3,7.4,5
2018/7/3 8:32,3,4,3,4,6.8,3
2018/7/3 8:33,3.2,4,3.2,4,6.5,3
2018/7/3 8:34,3.1,4,3.2,4,3.2,6
2018/7/3 8:35,3,4,3.1,4,4.1,4
2018/7/3 8:36,3,4,3,4,4.8,2
2018/7/3 8:37,3,4,3,4,3.9,3
2018/7/3 8:38,3.1,4,3.1,4,3.8,3
2018/7/3 8:39,3.1,4,3.1,4,3.8,3
2018/7/3 8:40,3,4,3.1,4,3.8,3
2018/7/3 8:41,2.7,4,2.9,4,3.8,5
2018/7/3 8:42,2.5,4,2.7,4,4.7,6
2018/7/3 8:43,2.4,4,2.5,4,3.1,3
2018/7/3 8:44,2.5,4,2.5,4,4.5,4
2018/7/3 8:45,2.6,4,2.6,4,5.1,3
2018/7/3 8:46,2.7,4,2.7,4,6.4,5
2018/7/3 8:47,2.8,4,2.8,4,5,5
2018/7/3 8:48,3,4,3,4,6.9,5
2018/7/3 8:49,3.1,4,3.1,4,5.7,5
2018/7/3 8:50,3.3,4,3.3,4,5.7,5
2018/7/3 8:51,3.7,4,3.7,4,7.9,4
2018/7/3 8:52,3.9,4,3.9,4,8.3,5
2018/7/3 8:53,4.3,4,4.3,4,7.7,4
2018/7/3 8:54,4.4,5,4.4,5,6,5
2018/7/3 8:55,4.6,5,4.6,5,6.1,6
2018/7/3 8:56,4.6,5,4.7,5,6.3,5
2018/7/3 8:57,4.7,5,4.7,5,6.4,5
2018/7/3 8:58,4.5,5,4.7,5,5.6,5
2018/7/3 8:59,4.4,5,4.5,5,7.2,5
2018/7/3 9:00,4.5,5,4.5,5,6.9,3
2018/7/3 9:01,4.5,5,4.6,5,7,4
2018/7/3 9:02,4.3,5,4.5,5,5.6,4
2018/7/3 9:03,4,5,4.3,5,5.2,4
2018/7/3 9:04,3.9,5,4,5,5.6,4
2018/7/3 9:05,3.8,5,3.9,5,6,3
2018/7/3 9:06,3.7,5,3.8,5,4.1,3
2018/7/3 9:07,3.6,5,3.7,5,6.8,5
2018/7/3 9:08,3.8,5,3.8,5,7.4,4
2018/7/3 9:09,3.9,5,3.9,5,6.7,4
2018/7/3 9:10,3.7,5,3.9,5,5.5,4
2018/7/3 9:11,3.5,5,3.7,5,4.7,5
2018/7/3 9:12,3.5,5,3.5,5,5.8,7
2018/7/3 9:13,3.6,5,3.6,5,6.3,6
2018/7/3 9:14,3.5,5,3.6,5,4.4,6
2018/7/3 9:15,3.5,5,3.5,5,4.3,5
2018/7/3 9:16,3.4,5,3.5,5,3,4
2018/7/3 9:17,3.4,5,3.5,5,5.4,4
2018/7/3 9:18,3.3,5,3.4,5,5.4,5
2018/7/3 9:19,3.2,5,3.3,5,6.1,5
2018/7/3 9:20,3.3,5,3.3,5,6.2,5
2018/7/3 9:21,3.4,5,3.4,5,6.1,5
2018/7/3 9:22,3.5,5,3.5,5,6.8,4
2018/7/3 9:23,3.4,5,3.5,5,6,5
2018/7/3 9:24,3.5,4,3.5,5,6.1,3
2018/7/3 9:25,3.7,5,3.7,5,6.7,5
2018/7/3 9:26,3.9,5,3.9,5,5.6,3
2018/7/3 9:27,3.8,4,3.9,5,4.8,4
2018/7/3 9:28,3.7,4,3.8,5,3.8,3
2018/7/3 9:29,3.6,5,3.6,5,4.8,4
2018/7/3 9:30,3.5,5,3.6,5,5.5,5
2018/7/3 9:31,3.4,5,3.4,5,5.1,6
2018/7/3 9:32,3.3,5,3.4,5,4.8,5
2018/7/3 9:33,3.2,5,3.3,5,3.8,6
2018/7/3 9:34,3.3,5,3.4,5,7,5
2018/7/3 9:35,3.3,5,3.4,5,6.9,6
2018/7/3 9:36,3.3,5,3.3,5,4.8,6
2018/7/3 9:37,3.5,5,3.5,5,7.1,5
2018/7/3 9:38,3.7,5,3.7,5,6.3,5
2018/7/3 9:39,3.8,5,3.8,5,4.4,5
2018/7/3 9:40,3.7,5,3.8,5,4.9,5
2018/7/3 9:41,3.7,5,3.7,5,3.9,5
2018/7/3 9:42,3.6,5,3.6,5,4.1,4
2018/7/3 9:43,3.5,5,3.5,5,3.5,3
2018/7/3 9:44,3.3,5,3.5,5,3.7,5
2018/7/3 9:45,3.2,5,3.3,5,6.5,4
2018/7/3 9:46,3.2,5,3.3,5,4.9,6
2018/7/3 9:47,3.2,5,3.3,5,5.4,6
2018/7/3 9:48,3.1,5,3.2,5,4.7,5
2018/7/3 9:49,3,5,3,5,4.4,5
2018/7/3 9:50,3.1,5,3.1,5,6.2,5
2018/7/3 9:51,3.3,5,3.3,5,7,5
2018/7/3 9:52,3.4,5,3.4,5,5.5,5
2018/7/3 9:53,3.5,5,3.5,5,5,5
2018/7/3 9:54,3.6,5,3.6,5,4.3,6
2018/7/3 9:55,3.5,5,3.6,5,6.7,5
2018/7/3 9:56,3.5,5,3.5,5,6.4,5
2018/7/3 9:57,3.4,5,3.4,5,5.5,5
2018/7/3 9:58,3.4,5,3.4,5,5.6,6
2018/7/3 9:59,3.5,5,3.5,5,6.2,5
2018/7/3 10:00,3.6,5,3.6,5,7.7,7
2018/7/3 10:01,3.6,5,3.7,5,6.8,7
2018/7/3 10:02,3.4,6,3.6,5,3.5,5
2018/7/3 10:03,3.3,6,3.4,5,4.4,5
2018/7/3 10:04,3.2,6,3.3,5,4.5,5
2018/7/3 10:05,3.2,6,3.3,5,5.1,9
2018/7/3 10:06,3.2,6,3.2,5,5.8,7
2018/7/3 10:07,3.2,6,3.2,5,4.3,7
2018/7/3 10:08,3,6,3.2,5,3.5,5
2018/7/3 10:09,2.8,6,3,5,2.4,6
2018/7/3 10:10,2.6,7,2.7,5,5.5,7
2018/7/3 10:11,2.4,7,2.5,5,5,7
2018/7/3 10:12,2.4,6,2.4,6,4.1,7
2018/7/3 10:13,2.5,6,2.5,6,3.6,5
2018/7/3 10:14,2.3,6,2.5,6,4.4,6
2018/7/3 10:15,2.4,6,2.4,6,6.7,7
2018/7/3 10:16,2.5,6,2.5,6,7.2,6
2018/7/3 10:17,2.6,6,2.6,6,6.8,6
2018/7/3 10:18,2.8,7,2.8,6,5.7,7
2018/7/3 10:19,3,7,3,7,6.3,8
2018/7/3 10:20,3.2,7,3.2,7,7.1,6
2018/7/3 10:21,3.3,6,3.3,7,6.2,6
2018/7/3 10:22,3.4,6,3.4,6,3.7,6
2018/7/3 10:23,3.4,7,3.4,6,3.3,6
2018/7/3 10:24,3.4,7,3.4,6,2.5,5
2018/7/3 10:25,3.1,6,3.4,6,2.6,7
2018/7/3 10:26,3.1,6,3.1,6,3.9,6
2018/7/3 10:27,2.9,6,3,6,4.2,6
2018/7/3 10:28,2.8,6,2.9,6,4.1,5
2018/7/3 10:29,2.6,6,2.8,6,3.1,6
2018/7/3 10:30,2.3,6,2.6,6,4.1,6
2018/7/3 10:31,2.2,6,2.3,6,4.2,7
2018/7/3 10:32,2.2,6,2.2,6,3.7,6
2018/7/3 10:33,2.3,6,2.3,7,6,6
2018/7/3 10:34,2.6,6,2.6,7,7.8,7
2018/7/3 10:35,2.8,6,2.8,6,5.5,6
2018/7/3 10:36,3,6,3,6,7.2,6
2018/7/3 10:37,3.1,6,3.1,6,6.7,4
2018/7/3 10:38,3.1,6,3.1,6,5.6,6
2018/7/3 10:39,3.2,6,3.2,6,3.9,7
2018/7/3 10:40,3.4,6,3.4,6,6.7,6
2018/7/3 10:41,3.4,6,3.4,6,5.2,8
2018/7/3 10:42,3.5,6,3.6,6,7.2,8
2018/7/3 10:43,3.7,6,3.7,6,6.8,6
2018/7/3 10:44,3.7,6,3.7,6,7.7,7
2018/7/3 10:45,3.8,6,3.8,6,7.1,6
2018/7/3 10:46,3.5,7,3.7,6,2.4,8
2018/7/3 10:47,3.4,7,3.4,6,3.6,6
2018/7/3 10:48,3.2,6,3.4,6,3.6,5
2018/7/3 10:49,3.2,6,3.2,6,4.2,6
2018/7/3 10:50,3,6,3.2,6,2.1,5
2018/7/3 10:51,2.8,6,2.9,6,3.8,6
2018/7/3 10:52,2.8,6,2.8,6,3.3,6
2018/7/3 10:53,2.5,6,2.8,6,3.6,6
2018/7/3 10:54,2.2,6,2.4,6,3,6
2018/7/3 10:55,2,6,2.1,6,6.5,8
2018/7/3 10:56,2.2,6,2.2,7,4.4,6
2018/7/3 10:57,2.3,6,2.3,7,5.7,4
2018/7/3 10:58,2.5,7,2.5,6,6.2,7
2018/7/3 10:59,2.6,7,2.6,6,6.2,5
2018/7/3 11:00,2.8,6,2.8,6,5.5,6
2018/7/3 11:01,3.1,6,3.1,6,5.8,6
2018/7/3 11:02,3.1,6,3.1,6,5,6
2018/7/3 11:03,3.2,6,3.2,6,4.7,6
2018/7/3 11:04,3.5,6,3.5,6,6.7,6
2018/7/3 11:05,3.6,6,3.6,6,5.1,6
2018/7/3 11:06,3.5,6,3.6,6,3.8,7
2018/7/3 11:07,3.4,6,3.5,6,2.4,6
2018/7/3 11:08,3.1,6,3.3,6,3.1,7
2018/7/3 11:09,3,6,3.1,6,3.7,8
2018/7/3 11:10,2.9,6,3,6,3.6,7
2018/7/3 11:11,2.6,6,2.9,6,2,6
2018/7/3 11:12,2.4,6,2.5,6,3.3,6
2018/7/3 11:13,2.2,6,2.4,6,3.9,7
2018/7/3 11:14,2,7,2.2,6,3.5,6
2018/7/3 11:15,1.9,7,2,6,6.1,6
2018/7/3 11:16,2.2,7,2.2,6,7.1,6
2018/7/3 11:17,2.4,7,2.4,6,4.4,6
2018/7/3 11:18,2.5,6,2.5,6,5.7,6
2018/7/3 11:19,2.6,6,2.6,6,7.8,6
2018/7/3 11:20,3,6,3,6,8.1,5
2018/7/3 11:21,3.4,6,3.4,6,7.2,6
2018/7/3 11:22,3.7,6,3.7,6,6.2,6
2018/7/3 11:23,3.9,6,3.9,6,5.5,6
2018/7/3 11:24,4,6,4,6,5.1,6
2018/7/3 11:25,3.9,6,4,6,3.9,7
2018/7/3 11:26,3.6,6,3.8,6,4.7,4
2018/7/3 11:27,3.8,6,3.8,6,7.5,5
2018/7/3 11:28,4,5,4,6,7.1,5
2018/7/3 11:29,4,5,4.1,5,6.5,5
2018/7/3 11:30,3.8,5,4,5,4.9,5
2018/7/3 11:31,3.6,5,3.7,5,6.5,6
2018/7/3 11:32,3.5,5,3.5,5,5,3
2018/7/3 11:33,3.5,5,3.5,5,6,4
2018/7/3 11:34,3.6,5,3.6,5,5.4,3
2018/7/3 11:35,3.6,5,3.6,5,4.7,5
2018/7/3 11:36,3.7,5,3.7,5,4.7,3
2018/7/3 11:37,3.5,5,3.7,5,5,6
2018/7/3 11:38,3.2,5,3.5,5,3.2,4
2018/7/3 11:39,3,4,3.2,5,4.7,4
2018/7/3 11:40,3.1,4,3.1,5,4.8,4
2018/7/3 11:41,3.2,4,3.2,5,6.8,4
2018/7/3 11:42,3.2,4,3.2,5,6.5,4
2018/7/3 11:43,3.2,4,3.3,5,5.2,5
2018/7/3 11:44,3.1,4,3.2,5,6.1,5
2018/7/3 11:45,3.3,4,3.3,5,6.9,6
2018/7/3 11:46,3.3,4,3.3,5,7,6
2018/7/3 11:47,3.3,5,3.3,5,4.5,4
2018/7/3 11:48,3.6,5,3.6,4,8.1,4
2018/7/3 11:49,3.7,5,3.7,5,5.8,5
2018/7/3 11:50,3.8,5,3.8,5,6,5
2018/7/3 11:51,3.8,5,3.8,5,6.7,6
2018/7/3 11:52,3.7,5,3.8,5,6.4,6
2018/7/3 11:53,3.7,5,3.7,5,4.3,5
2018/7/3 11:54,3.6,5,3.7,5,5,5
2018/7/3 11:55,3.5,5,3.6,5,5,4
2018/7/3 11:56,3.6,5,3.6,5,5.2,4
2018/7/3 11:57,3.6,5,3.7,5,5.8,4
2018/7/3 11:58,3.5,5,3.7,5,6.2,5
2018/7/3 11:59,3.5,5,3.5,5,5,6
2018/7/3 12:00,3.3,5,3.5,5,3.3,6
2018/7/3 12:01,3.2,5,3.3,5,5,6
2018/7/3 12:02,3.2,5,3.2,5,5.6,4
2018/7/3 12:03,3.3,5,3.3,5,6.3,5
2018/7/3 12:04,3.5,5,3.5,5,6.9,4
2018/7/3 12:05,3.5,5,3.6,5,5.7,5
2018/7/3 12:06,3.4,5,3.5,5,4.7,5
2018/7/3 12:07,3.5,5,3.5,5,8.2,5
2018/7/3 12:08,3.5,5,3.5,5,7,5